Location: Lussas
(44.6119°N, 4.4726°E)
Time: 06:17:14
(UTC+00:00)

CZ-4C R/B - Pass Details

Date: 26 November 2020
Orbit: 620 x 1382 km, 63.4° (Epoch: 18 January)

Event Time Altitude Azimuth Distance (km) Brightness Sun altitude
Rises 05:16:05 0° 207° (SSW) 2,982 4.9 -16.9°
Reaches altitude 10° 05:18:14 10° 204° (SSW) 2,131 4.2 -16.5°
Maximum altitude 05:23:00 67° 123° (ESE) 829 2.4 -15.7°
Drops below altitude 10° 05:28:45 10° 41° (NE) 2,550 5.0 -14.7°
Sets 05:31:32 0° 39° (NE) 3,620 5.8 -14.2°
